Date,TemperatureHighF,TemperatureAvgF,TemperatureLowF,DewpointHighF,DewpointAvgF,DewpointLowF,HumidityHigh,HumidityAvg,HumidityLow,PressureMaxIn,PressureMinIn,WindSpeedMaxMPH,WindSpeedAvgMPH,GustSpeedMaxMPH,PrecipitationSumIn
2013-5-1,71,52,32,50,38,27,100,66,35,30.15,30.00,11,1,11,0.00
2013-5-2,81,55,38,56,41,31,100,66,35,30.15,30.03,13,2,13,0.00
2013-5-3,59,46,38,45,37,30,100,75,45,30.18,30.06,13,3,13,0.00
2013-5-4,63,49,34,47,36,28,100,66,40,30.03,29.94,17,3,17,0.00
2013-5-5,62,45,34,46,38,33,100,81,45,30.00,29.91,8,2,8,0.00
2013-5-6,74,58,42,51,43,35,100,64,35,29.97,29.88,9,2,9,0.00
2013-5-7,57,48,45,57,48,45,100,100,100,29.91,29.83,0,0,0,0.00
2013-5-8,71,63,51,67,55,47,100,80,45,29.94,29.83,17,1,17,0.00
2013-5-9,69,63,60,66,59,46,100,91,50,29.74,29.62,6,0,6,0.00
2013-5-10,80,66,55,63,54,45,100,73,35,29.74,29.59,9,0,9,0.00
2013-5-11,61,59,58,61,59,58,100,100,100,29.59,29.53,6,0,6,0.00
2013-5-12,72,59,43,62,36,19,100,49,21,29.53,29.35,12,2,12,0.00
2013-5-13,61,48,34,39,25,16,100,44,27,29.68,29.50,12,2,12,0.00
2013-5-14,52,43,33,26,20,16,66,41,33,29.77,29.68,9,2,9,0.00
2013-5-15,54,40,32,47,34,20,100,84,33,29.80,29.44,8,0,8,0.00
2013-5-16,80,69,50,58,38,24,100,38,21,29.50,29.32,13,3,13,0.00
2013-5-17,71,61,42,45,28,20,90,32,21,29.83,29.56,15,3,15,0.00
2013-5-18,64,52,40,52,36,24,100,66,24,30.03,29.88,8,1,8,0.00
2013-5-19,72,60,43,56,38,25,100,55,21,30.09,29.97,10,2,10,0.00
2013-5-20,83,70,60,65,55,35,100,66,18,29.80,29.68,8,0,8,0.00
2013-5-21,83,71,56,71,59,37,100,73,35,29.71,29.59,13,2,13,0.00
2013-5-22,73,64,54,67,58,53,100,83,56,29.71,29.59,6,0,6,0.00
2013-5-23,74,67,64,71,66,60,100,97,68,29.71,29.59,14,2,14,0.00
2013-5-24,68,63,50,68,63,50,100,100,100,29.59,29.41,10,1,10,0.00
2013-5-25,54,49,40,54,49,40,100,100,100,29.50,29.41,10,1,10,0.00
2013-5-26,60,48,38,44,40,36,100,79,56,29.80,29.41,18,2,18,0.00
2013-5-27,72,56,37,56,44,37,100,68,44,29.88,29.77,14,2,14,0.00
2013-5-28,77,64,40,57,48,40,100,61,44,30.00,29.85,8,1,8,0.00
2013-5-29,75,66,59,68,60,53,100,85,50,29.85,29.77,16,1,16,0.00
2013-5-30,83,70,0,74,64,0,100,65,18,29.88,29.77,20,2,20,0.00
2013-5-31,83,77,0,77,53,39,100,49,23,29.88,29.77,17,2,17,0.00